This is the latest recevied weather packets stored in our database for station/object KM4KMS. If no packets are shown the sender has not sent any weather packets the latest 10 day(s).
| Time | Temp. | Humidity | Pressure | Rain* | Wind** | Luminosity | Snow |
|---|---|---|---|---|---|---|---|
| 1778242793 | 10° C | 78% | 1015.3 hPa | 0 mm | - | 139 W/m² | - |
| 1778242491 | 9.44° C | 79% | 1015.3 hPa | 0 mm | - | 128 W/m² | - |
| 1778242188 | 9.44° C | 79% | 1015.3 hPa | 0 mm | - | 114 W/m² | - |
| 1778241886 | 8.89° C | 79% | 1015 hPa | 0 mm | - | 103 W/m² | - |
| 1778241583 | 8.89° C | 80% | 1015.1 hPa | 0 mm | - | 93 W/m² | - |
| 1778241281 | 8.89° C | 79% | 1015 hPa | 0 mm | - | 55 W/m² | - |
| 1778240978 | 8.33° C | 80% | 1015.2 hPa | 0 mm | - | 48 W/m² | - |
| 1778240675 | 7.78° C | 81% | 1015.1 hPa | 0 mm | - | 43 W/m² | - |
| 1778240371 | 7.78° C | 82% | 1015 hPa | 0 mm | - | 39 W/m² | - |
| 1778240069 | 7.22° C | 82% | 1014.9 hPa | 0 mm | - | 36 W/m² | - |
| 1778239766 | 7.22° C | 83% | 1014.6 hPa | 0 mm | - | 32 W/m² | - |
| 1778239463 | 7.22° C | 83% | 1015 hPa | 0 mm | - | 29 W/m² | - |
| 1778239159 | 7.22° C | 84% | 1014.8 hPa | 0 mm | - | 25 W/m² | - |
| 1778238856 | 6.67° C | 88% | 1014.6 hPa | 0 mm | - | 22 W/m² | - |
| 1778238554 | 5.56° C | 90% | 1014.7 hPa | 0 mm | - | 19 W/m² | - |
| 1778238252 | 5.56° C | 91% | 1014.3 hPa | 0 mm | - | 16 W/m² | - |
| 1778237950 | 5.56° C | 90% | 1014.8 hPa | 0 mm | - | 12 W/m² | - |
| 1778237647 | 5.56° C | 90% | 1014.6 hPa | 0 mm | - | 10 W/m² | - |
| 1778237344 | 5.56° C | 90% | 1014.4 hPa | 0 mm | - | 7 W/m² | - |
| 1778237042 | 5.56° C | 90% | 1014.4 hPa | 0 mm | - | 3 W/m² | - |
| 1778236739 | 5.56° C | 90% | 1014.6 hPa | 0 mm | - | 1 W/m² | - |
| 1778236435 | 5.56° C | 90% | 1014.6 hPa | 0 mm | - | 0 W/m² | - |
| 1778236133 | 5.56° C | 89% | 1014.7 hPa | 0 mm | - | 0 W/m² | - |
| 1778235831 | 5.56° C | 89% | 1014.4 hPa | 0 mm | - | 0 W/m² | - |
| 1778235528 | 5.56° C | 90% | 1014.3 hPa | 0 mm | - | 0 W/m² | - |
* Rain latest hour (hover to see other rain measurements)
** Current wind speed in m/s (hover to see current wind gust speed)